Location: Austin
(30.3000°N, 97.7500°W)
Time: 12:21:17
(UTC-05:00)

Hubble Space Telescope - Pass Details

Date: 26 May 2023
Orbit: 525 x 528 km, 28.5° (Epoch: 30 May)

Event Time Altitude Azimuth Distance (km) Brightness Sun altitude
Rises 21:20:40 0° 269° (W) 2,639 5.3 -11.3°
Reaches altitude 10° 21:23:14 10° 255° (WSW) 1,749 4.0 -11.8°
Maximum altitude 21:26:28 23° 201° (SSW) 1,127 2.3 -12.4°
Enters shadow 21:28:41 15° 159° (SSE) 1,447 2.5 -12.8°
